ORBCOMM FM23 [-]

Last updated on Fri Dec 29 2023 00:02:54 GMT+0000 (Coordinated Universal Time)

1 25477U 98053C 23362.19453190 .00001818 00000+0 68428-3 0 9996 2 25477 45.0093 289.5816 0002306 7.9582 352.1301 14.34799255320514
UTC large
Height (km)
Speed (km/s)
/
Latitude / Longitude
Inclination (degrees)
Orbital Period (minutes)
Azimuth
Elevation
Range (km)
Doppler Factor

Next 0 passes for location: London (51.5072 / 0.1276)

Sorry there are no passes over London.
ORBCOMM FM23 [-]